Regional Weather Roundup
Issued by NWS

Home | Current Version | Previous Version | Graphics & Text | Print | Product List | Glossary On
Versions: 1 2 3 4 5 6 7 8 9 10 11 12 13 14 15 16 17 18 19 20 21 22 23 24 25 26 27 28 29 30 31 32 33 34 35 36 37 38 39 40 41 42 43 44 45 46 47 48 49 50
000
ASUS43 KFSD 280010
RWRSD

WEATHER ROUNDUP FOR SOUTH DAKOTA
NATIONAL WEATHER SERVICE SIOUX FALLS SD
700 PM CDT MON JUL 27 2015

NOTE: "FAIR" INDICATES FEW OR NO CLOUDS BELOW 12,000 FEET WITH NO
SIGNIFICANT WEATHER AND/OR OBSTRUCTIONS TO VISIBILITY.


SDZ001>005-009-010-012>017-280100-
NORTHWEST AND NORTH CENTRAL SOUTH DAKOTA

CITY           SKY/WX    TMP DP  RH WIND       PRES   REMARKS
BUFFALO          N/A     83  60  45 SE33G43   29.54F
FAITH            N/A     87  60  40 SE10      29.65S
MOBRIDGE       SUNNY     92  71  50 SE25G32   29.63F HX  98
$$

SDZ012>016-024>037-041>051-057-063-072>074-280100-
SOUTHWEST AND SOUTH CENTRAL SOUTH DAKOTA

CITY           SKY/WX    TMP DP  RH WIND       PRES   REMARKS
RAPID CTY ARPT TSTM      67  62  84 N23G66    29.67R VSB 1/2
PIERRE         SUNNY     92  66  42 SE25G33   29.62S
CUSTER         CLOUDY    54  53  97 N6        29.83F FOG
ELLSWORTH AFB  TSTM      68  64  88 W23G47    29.72  FOG
PHILIP         SUNNY     91  69  48 SE15G24   29.61S HX  96
PINE RIDGE     SUNNY     91  60  35 S15G31    29.63F
SPEARFISH      LGT RAIN  68  57  68 SE13G30   29.70R
WINNER         FAIR      92  67  43 SE18G29   29.67F HX  95
$$

SDZ004>011-016>023-039-040-280100-
NORTHEAST SOUTH DAKOTA

CITY           SKY/WX    TMP DP  RH WIND       PRES   REMARKS
ABERDEEN       SUNNY     87  72  60 SE17      29.72S
WATERTOWN      SUNNY     84  68  58 SE16G23   29.79F
BROOKINGS      SUNNY     82  70  65 SE14      29.82F
SISSETON         N/A     84  75  74 SE14G23   29.75F
$$

SDZ017-020-022-023-036>040-048>070-280100-
SOUTHEAST SOUTH DAKOTA

CITY           SKY/WX    TMP DP  RH WIND       PRES   REMARKS
SIOUX FALLS    MOSUNNY   84  71  65 S16G22    29.79F
HURON          MOSUNNY   85  75  72 SE14G28   29.71F
CHAMBERLAIN    MOSUNNY   88  73  61 SE14G24   29.67F HX  95
MITCHELL       SUNNY     87  76  69 SE16      29.72F HX  97
YANKTON        SUNNY     88  72  58 SE16      29.75S
$$

ABBREVIATIONS USED IN REMARKS
   TC - TEMPERATURE IN CELSIUS
  WCI - WIND CHILL INDEX
   HX - HEAT INDEX
  VSB - VISIBILITY




USA.gov is the U.S. government's official web portal to all federal, state and local government web resources and services.